Stations météo

réclame
Mon MeteoGroup
Menorca/Mahon, Espagne (8314): Température de l'air & dewpoint: 14.10.2018 15:00:00 - 20.10.2018 15:00:00 (CEST)Menorca/Mahon, Espagne (8314): Vitesse du vent & gusts: 14.10.2018 15:00:00 - 20.10.2018 15:00:00 (CEST)Menorca/Mahon, Espagne (8314): Direction du vent: 14.10.2018 15:00:00 - 20.10.2018 15:00:00 (CEST)Menorca/Mahon, Espagne (8314): reduced air pressure: 14.10.2018 15:00:00 - 20.10.2018 15:00:00 (CEST)Menorca/Mahon, Espagne (8314): visibility: 14.10.2018 15:00:00 - 20.10.2018 15:00:00 (CEST)
Date & Time tt [°C] td [°C] ff [km/h] ff [knt] fx [km/h] fx [knt] dd ppp [hPa] vv [km]
20.10.2018 15:00:00 25,0 18,8 13 7 - - E 1020,5 25
20.10.2018 14:00:00 25,3 18,4 11 6 - - ESE 1020,5 26
20.10.2018 13:00:00 25,5 19,0 8 4 - - E 1021,1 -
20.10.2018 12:00:00 24,1 18,7 2 1 - - E 1021,0 -
20.10.2018 11:00:00 24,2 19,0 2 1 - - ENE 1020,8 20
20.10.2018 10:00:00 22,6 19,3 2 1 - - NNE 1020,4 -
20.10.2018 09:00:00 19,5 18,4 4 2 - - E 1019,8 18
20.10.2018 08:00:00 17,0 16,0 2 1 - - E 1019,0 14
20.10.2018 07:00:00 18,4 17,4 5 3 - - SE 1018,5 -
20.10.2018 06:00:00 18,4 17,6 5 3 - - SE 1018,1 -
20.10.2018 05:00:00 18,3 17,5 5 3 - - SE 1018,0 -
20.10.2018 04:00:00 18,5 17,5 5 3 - - ESE 1017,8 -
20.10.2018 03:00:00 19,1 18,1 5 3 - - SSE 1017,8 -
20.10.2018 02:00:00 18,8 18,0 5 3 - - ESE 1017,3 -
20.10.2018 01:00:00 19,0 18,0 8 4 - - ESE 1017,1 -
20.10.2018 00:00:00 19,2 18,0 11 6 - - E 1016,8 -
19.10.2018 23:00:00 19,4 18,2 5 3 - - ESE 1016,9 12
19.10.2018 22:00:00 19,9 18,5 5 3 - - ESE 1016,5 -
19.10.2018 21:00:00 20,3 18,8 5 3 - - E 1016,0 -
19.10.2018 20:00:00 21,0 18,8 8 4 - - E 1015,5 15
19.10.2018 19:00:00 21,6 19,0 9 5 - - E 1014,8 -
19.10.2018 18:00:00 22,4 19,3 13 7 - - E 1014,2 -
19.10.2018 17:00:00 24,0 19,0 13 7 - - E 1013,8 20
19.10.2018 16:00:00 24,2 17,5 15 8 - - E 1013,6 -
19.10.2018 15:00:00 23,8 18,4 16 9 - - ESE 1013,6 20
19.10.2018 14:00:00 23,9 18,8 18 10 - - ESE 1013,8 20
19.10.2018 13:00:00 24,2 18,5 22 12 - - ESE 1013,9 -
19.10.2018 12:00:00 23,9 19,5 24 13 - - E 1014,0 -
19.10.2018 11:00:00 23,2 18,7 24 13 - - E 1013,5 20
19.10.2018 10:00:00 22,1 18,5 18 10 - - E 1013,3 -
19.10.2018 09:00:00 20,8 17,6 16 9 - - E 1012,4 18
19.10.2018 08:00:00 20,3 17,5 16 9 - - E 1011,6 20
19.10.2018 07:00:00 20,2 18,0 16 9 - - E 1011,3 -
19.10.2018 06:00:00 20,3 18,1 21 11 - - E 1010,6 -
19.10.2018 05:00:00 20,6 18,2 18 10 - - E 1010,3 -
19.10.2018 04:00:00 20,7 17,9 21 11 - - ESE 1010,3 -
19.10.2018 03:00:00 20,1 18,2 16 9 - - ESE 1010,1 -
19.10.2018 02:00:00 20,5 18,1 15 8 - - ESE 1009,9 -
19.10.2018 01:00:00 20,5 18,3 15 8 - - ESE 1009,6 -
19.10.2018 00:00:00 20,1 17,7 13 7 - - E 1009,9 -
18.10.2018 23:00:00 21,4 19,8 26 14 - - E 1009,2 9
18.10.2018 22:00:00 21,5 20,0 26 14 - - E 1008,9 -
18.10.2018 21:00:00 21,6 20,0 26 14 - - E 1008,5 -
18.10.2018 20:00:00 21,5 19,8 26 14 - - ENE 1007,8 9
18.10.2018 19:00:00 21,4 19,5 24 13 - - ENE 1007,3 -
18.10.2018 18:00:00 21,5 19,4 28 15 - - ENE 1007,3 -
18.10.2018 17:00:00 21,7 19,3 28 15 - - ENE 1007,2 13
18.10.2018 16:00:00 21,8 19,4 29 16 - - ENE 1007,3 -
18.10.2018 15:00:00 22,1 19,4 31 17 - - ENE 1007,6 20
18.10.2018 14:00:00 22,4 19,5 26 14 - - ENE 1007,7 20
18.10.2018 13:00:00 23,1 19,7 29 16 - - ENE 1008,2 -
18.10.2018 12:00:00 22,6 19,6 26 14 - - ENE 1008,3 -
18.10.2018 11:00:00 22,1 19,3 22 12 - - E 1008,3 20
18.10.2018 10:00:00 21,0 18,9 21 11 - - E 1008,3 -
18.10.2018 09:00:00 19,4 18,6 15 8 - - NE 1008,1 15
18.10.2018 08:00:00 18,3 17,7 16 9 - - NNE 1007,8 8
18.10.2018 07:00:00 19,7 18,7 21 11 - - NE 1008,0 -
18.10.2018 06:00:00 19,3 19,0 18 10 - - NNE 1008,2 -
18.10.2018 05:00:00 18,5 18,0 18 10 - - NE 1008,6 -
18.10.2018 04:00:00 19,8 18,6 11 6 - - ENE 1009,0 -
18.10.2018 03:00:00 19,5 18,3 15 8 - - NE 1009,3 -
18.10.2018 02:00:00 18,7 17,5 13 7 - - NNE 1009,8 -
18.10.2018 01:00:00 18,8 17,8 13 7 - - NNE 1010,4 -
18.10.2018 00:00:00 18,5 16,8 13 7 - - NE 1010,8 -
17.10.2018 23:00:00 19,9 17,9 16 9 - - NE 1011,2 20
17.10.2018 22:00:00 20,4 18,2 21 11 - - NE 1011,1 -
17.10.2018 21:00:00 20,5 18,4 22 12 - - NE 1010,9 -
17.10.2018 20:00:00 20,4 18,2 21 11 - - NE 1010,7 18
17.10.2018 19:00:00 20,7 18,1 21 11 - - NE 1010,6 -
17.10.2018 18:00:00 21,9 17,8 21 11 - - NNE 1010,5 -
17.10.2018 17:00:00 22,4 17,5 21 11 - - NNE 1010,8 22
17.10.2018 16:00:00 22,2 17,4 18 10 - - NE 1011,0 -
17.10.2018 15:00:00 22,3 17,5 21 11 - - NE 1011,4 25
17.10.2018 14:00:00 22,8 17,4 22 12 - - NE 1011,8 25
17.10.2018 13:00:00 23,0 18,1 21 11 - - NE 1012,4 -
17.10.2018 12:00:00 22,8 17,2 18 10 - - NE 1013,0 -
17.10.2018 11:00:00 22,0 17,6 16 9 - - NE 1013,3 28
17.10.2018 10:00:00 20,8 17,5 13 7 - - NNE 1013,4 -
17.10.2018 09:00:00 18,0 16,3 9 5 - - N 1013,3 24
17.10.2018 08:00:00 15,3 14,3 13 7 - - NNE 1013,4 24
17.10.2018 07:00:00 15,2 14,1 11 6 - - N 1013,7 -
17.10.2018 06:00:00 - - - - - - - - -
17.10.2018 05:00:00 - - - - - - - - -
17.10.2018 04:00:00 15,2 13,7 11 6 - - N 1014,3 -
17.10.2018 03:00:00 15,5 14,0 11 6 - - N 1014,8 -
17.10.2018 02:00:00 - - - - - - - - -
17.10.2018 01:00:00 15,9 13,7 8 4 - - N 1015,2 -
17.10.2018 00:00:00 16,0 13,8 8 4 - - NNE 1015,7 -
16.10.2018 23:00:00 16,1 13,8 8 4 - - NE 1015,9 30
16.10.2018 22:00:00 16,6 13,7 5 3 - - NE 1015,6 -
16.10.2018 21:00:00 18,4 14,3 11 6 - - ENE 1015,3 -
16.10.2018 20:00:00 18,6 14,5 9 5 - - NE 1015,3 16
16.10.2018 19:00:00 19,6 14,5 8 4 - - ENE 1014,9 -
16.10.2018 18:00:00 21,0 14,6 9 5 - - ENE 1014,6 -
16.10.2018 17:00:00 22,3 15,0 8 4 - - ESE 1014,6 28
16.10.2018 16:00:00 24,7 13,7 4 2 - - S 1014,2 -
16.10.2018 15:00:00 24,4 12,8 11 6 - - SW 1014,0 25
16.10.2018 14:00:00 25,3 13,4 8 4 - - SW 1014,2 24
16.10.2018 13:00:00 23,3 13,9 4 2 - - SSW 1014,8 -
16.10.2018 12:00:00 22,0 14,9 4 2 - - SSE 1014,5 -
16.10.2018 11:00:00 20,0 15,3 4 2 - - ENE 1014,4 25
16.10.2018 10:00:00 18,2 15,3 2 1 - - NNE 1014,3 -
16.10.2018 09:00:00 19,0 15,1 4 2 - - NNE 1013,9 20
16.10.2018 08:00:00 16,5 14,0 0 0 - - N 1013,2 20
16.10.2018 07:00:00 15,6 13,4 0 0 - - N 1012,8 -
16.10.2018 06:00:00 15,0 12,5 5 3 - - ESE 1012,4 -
16.10.2018 05:00:00 14,7 12,2 0 0 - - N 1012,0 -
16.10.2018 04:00:00 15,6 12,2 0 0 - - N 1012,3 -
16.10.2018 03:00:00 17,3 12,0 4 2 - - WSW 1012,7 -
16.10.2018 02:00:00 18,2 13,3 2 1 - - WSW 1012,6 -
16.10.2018 01:00:00 18,2 12,9 4 2 - - SSW 1012,6 -
16.10.2018 00:00:00 19,2 12,2 11 6 - - SW 1012,6 -
15.10.2018 23:00:00 19,5 12,7 15 8 - - SW 1012,4 25
15.10.2018 22:00:00 19,2 13,1 9 5 - - SW 1011,9 -
15.10.2018 21:00:00 19,5 12,7 13 7 - - SW 1011,3 -
15.10.2018 20:00:00 19,4 13,1 13 7 - - SSW 1011,0 25
15.10.2018 19:00:00 19,8 12,3 15 8 - - SW 1010,4 -
15.10.2018 18:00:00 21,7 13,0 16 9 - - SW 1009,9 -
15.10.2018 17:00:00 22,5 12,6 22 12 - - SW 1009,3 25
15.10.2018 16:00:00 22,7 12,8 28 15 - - WSW 1009,1 -
15.10.2018 15:00:00 22,7 13,5 31 17 - - SW 1008,8 26
15.10.2018 14:00:00 22,7 13,0 31 17 - - SW 1009,0 28
15.10.2018 13:00:00 22,8 13,7 31 17 - - WSW 1009,0 -
15.10.2018 12:00:00 21,5 12,7 35 19 - - SW 1008,6 -
15.10.2018 11:00:00 21,9 12,2 34 18 - - SW 1008,1 28
15.10.2018 10:00:00 20,7 12,0 34 18 - - SW 1007,7 -
15.10.2018 09:00:00 20,1 13,2 37 20 - - SW 1007,2 27
15.10.2018 08:00:00 20,2 14,5 35 19 - - SW 1006,5 30
15.10.2018 07:00:00 20,3 17,5 29 16 - - SW 1006,0 -
15.10.2018 06:00:00 20,3 19,3 31 17 109 59 SSW 1005,8 -
15.10.2018 05:00:00 18,5 17,6 48 26 - - S 1006,0 -
15.10.2018 04:00:00 21,7 19,1 39 21 - - SSE 1006,2 -
15.10.2018 03:00:00 21,3 19,4 34 18 - - SSE 1007,0 -
15.10.2018 02:00:00 21,7 19,3 39 21 - - SSE 1007,6 -
15.10.2018 01:00:00 22,0 18,8 41 22 - - SE 1007,9 -
15.10.2018 00:00:00 21,4 18,6 37 20 - - SE 1008,2 -
14.10.2018 23:00:00 22,1 18,3 34 18 - - SSE 1009,3 19
14.10.2018 22:00:00 22,0 18,0 28 15 - - SE 1009,3 -
14.10.2018 21:00:00 21,8 17,8 34 18 - - SE 1009,3 -
14.10.2018 20:00:00 21,8 18,0 29 16 - - SE 1009,4 22
14.10.2018 19:00:00 21,8 18,0 28 15 - - SE 1009,0 -
14.10.2018 18:00:00 22,1 17,9 29 16 - - SE 1009,2 -
14.10.2018 17:00:00 24,0 17,9 34 18 - - SE 1009,0 25
14.10.2018 16:00:00 24,5 18,4 31 17 - - SE 1009,8 -
14.10.2018 15:00:00 24,3 17,8 34 18 - - SE 1010,6 20

tt = Température de l'air
td = dewpoint
ff = Vitesse du vent
fx = gusts
dd = Direction du vent
ppp = reduced air pressure
vv = visibility

stations d'obs. à proximité